Parsons, KS

4:52 PM CDT on April 24, 2017 (GMT -0500)
Tri-City

Weather History for KPPF - May, 2014

Change the Weather History Date:

Sunday, May 25, 2014

  Actual Average Record
Temperature  
Mean Temperature 75 °F -  
Max Temperature 84 °F 79 °F 93 °F (1964)
Min Temperature 66 °F 58 °F 44 °F (2001)
Cooling Degree Days 10    
Growing Degree Days 25 (Base 50)    
Moisture  
Dew Point 65 °F    
Average Humidity 84    
Maximum Humidity 93    
Minimum Humidity 55    
Precipitation  
Precipitation 1.15 in - - ()
Sea Level Pressure  
Sea Level Pressure 30.00 in    
Wind  
Wind Speed 5 mph (SSE)    
Max Wind Speed 16 mph    
Max Gust Speed 24 mph    
Visibility 7 miles    
Events Rain , Thunderstorm    
Averages and records for this station are not official NWS values.
T = Trace of Precipitation, MM = Missing Value Source: NWS Daily Summary

Daily Weather History Graph

Daily Weather History Graph

Search for Another Location

Airport or City:

Trip Planner

Search our weather history database for the weather conditions in past years. The results will help you decide how hot, cold, wet, or windy it might be!

Date:

Astronomy

May. 25, 2014 Rise Set
Actual Time 6:06 AM CDT 8:32 PM CDT
Civil Twilight 5:36 AM CDT 9:02 PM CDT
Nautical Twilight 4:59 AM CDT 9:39 PM CDT
Astronomical Twilight 4:18 AM CDT 10:20 PM CDT
Moon 4:06 AM CDT (5/25) 5:37 PM CDT (5/25)
Length of Visible Light 15h 25m
Length of Day
14h 25m
Waning Crescent, 10% of the Moon is Illuminated
May 25
Waning Crescent
May 28
New
Jun 5
First Quarter
Jun 12
Full
Jun 19
Last Quarter

Hourly Weather History & Observations

Time (CDT) Temp. Heat Index Dew Point Humidity Pressure Visibility Wind Dir Wind Speed Gust Speed Precip Events Conditions
12:52 AM 68.0 °F - 64.9 °F 90% 29.99 in 10.0 mi Calm Calm - N/A   Clear
1:52 AM 69.1 °F - 64.9 °F 87% 29.99 in 10.0 mi SE 3.5 mph - N/A   Clear
2:52 AM 68.0 °F - 64.9 °F 90% 29.99 in 8.0 mi ESE 3.5 mph - N/A   Clear
3:52 AM 66.9 °F - 64.0 °F 90% 29.98 in 7.0 mi SE 3.5 mph - N/A   Clear
4:52 AM 66.9 °F - 64.0 °F 90% 29.98 in 8.0 mi SSE 3.5 mph - N/A   Clear
5:52 AM 66.0 °F - 64.0 °F 93% 30.00 in 8.0 mi Calm Calm - N/A   Clear
7:52 AM 69.1 °F - 64.0 °F 84% 30.02 in 10.0 mi SSE 5.8 mph - N/A   Mostly Cloudy
8:04 AM 69.1 °F - 64.9 °F 87% 30.05 in 10.0 mi Variable 6.9 mph - N/A Thunderstorm Thunderstorm
8:19 AM 69.1 °F - 64.9 °F 87% 30.05 in 6.0 mi SSE 3.5 mph - 0.01 in Rain , Thunderstorm Light Rain
8:37 AM 69.1 °F - 64.9 °F 87% 30.06 in 2.5 mi North - - 0.06 in Rain , Thunderstorm Light Thunderstorms and Rain
8:41 AM 68.0 °F - 64.9 °F 90% 30.06 in 1.2 mi South 9.2 mph - 0.14 in Rain , Thunderstorm Heavy Thunderstorms and Rain
8:44 AM 68.0 °F - 64.9 °F 90% 30.06 in 1.0 mi South 8.1 mph - 0.18 in Rain , Thunderstorm Heavy Thunderstorms and Rain
8:52 AM 68.0 °F - 64.9 °F 90% 30.04 in 1.2 mi South 8.1 mph - 0.26 in Rain , Thunderstorm Heavy Thunderstorms and Rain
8:57 AM 68.0 °F - 64.9 °F 90% 30.06 in 2.0 mi South 5.8 mph - 0.00 in Rain , Thunderstorm Light Thunderstorms and Rain
9:01 AM 68.0 °F - 64.9 °F 90% 30.06 in 4.0 mi SE 4.6 mph - 0.00 in Rain Light Rain
10:52 AM 72.0 °F - 64.9 °F 78% 30.01 in 10.0 mi SSE 6.9 mph - 0.00 in   Mostly Cloudy
11:52 AM 75.0 °F - 66.9 °F 76% 30.02 in 10.0 mi South 8.1 mph - N/A   Partly Cloudy
12:52 PM 80.1 °F 82.3 °F 66.9 °F 64% 30.00 in 10.0 mi SSE 8.1 mph - N/A   Clear
1:52 PM 81.0 °F 83.3 °F 66.9 °F 62% 29.99 in 10.0 mi South 6.9 mph - N/A   Mostly Cloudy
2:52 PM 84.0 °F 87.0 °F 68.0 °F 58% 29.96 in 10.0 mi SE 9.2 mph - N/A   Partly Cloudy
3:52 PM 84.0 °F 86.3 °F 66.0 °F 55% 29.92 in 10.0 mi SSE 10.4 mph 18.4 mph N/A   Clear
4:52 PM 82.9 °F 85.4 °F 66.9 °F 58% 29.91 in 10.0 mi SSE 11.5 mph 17.3 mph N/A   Scattered Clouds
5:52 PM 80.1 °F 82.3 °F 66.9 °F 64% 29.94 in 10.0 mi South 8.1 mph - N/A   Scattered Clouds
6:04 PM 80.1 °F 82.3 °F 66.9 °F 64% 29.97 in 10.0 mi South 8.1 mph - N/A Thunderstorm Mostly Cloudy
6:30 PM 71.1 °F - 62.1 °F 73% 29.97 in 10.0 mi WNW 16.1 mph 24.2 mph N/A   Overcast
6:52 PM 70.0 °F - 62.1 °F 76% 29.96 in 10.0 mi West 10.4 mph - N/A Thunderstorm Overcast
7:04 PM 69.1 °F - 63.0 °F 81% 29.99 in 4.0 mi SW 9.2 mph - 0.04 in Rain , Thunderstorm Light Thunderstorms and Rain
7:06 PM 69.1 °F - 63.0 °F 81% 29.99 in 1.5 mi WSW 11.5 mph - 0.14 in Rain , Thunderstorm Heavy Thunderstorms and Rain
7:09 PM 68.0 °F - 64.0 °F 87% 29.98 in 0.8 mi SSW 9.2 mph - 0.23 in Rain , Thunderstorm Heavy Thunderstorms and Rain
7:20 PM 66.9 °F - 64.9 °F 93% 29.99 in 1.0 mi ESE 5.8 mph - 0.33 in Rain , Thunderstorm Thunderstorms and Rain
7:23 PM 66.9 °F - 64.9 °F 93% 29.99 in 1.5 mi East 3.5 mph - 0.33 in Rain , Thunderstorm Light Thunderstorms and Rain
7:25 PM 68.0 °F - 64.9 °F 90% 29.99 in 4.0 mi East 3.5 mph - 0.33 in Rain , Thunderstorm Light Thunderstorms and Rain
7:40 PM 68.0 °F - 64.9 °F 90% 29.99 in 1.8 mi Calm Calm - 0.44 in Rain , Thunderstorm Heavy Thunderstorms and Rain
7:45 PM 68.0 °F - 64.9 °F 90% 29.98 in 3.0 mi NNE 4.6 mph - 0.44 in Rain , Thunderstorm Light Thunderstorms and Rain
7:52 PM 68.0 °F - 64.9 °F 90% 29.96 in 10.0 mi Calm Calm - 0.44 in Rain , Thunderstorm Light Thunderstorms and Rain
8:08 PM 69.1 °F - 64.9 °F 87% 29.98 in 10.0 mi North 3.5 mph - 0.00 in Rain Light Rain
8:20 PM 68.0 °F - 64.9 °F 90% 29.97 in 10.0 mi NNW 5.8 mph - 0.00 in Thunderstorm Partly Cloudy
8:38 PM 68.0 °F - 64.9 °F 90% 29.98 in 4.0 mi Calm Calm - 0.04 in Rain , Thunderstorm Light Thunderstorms and Rain
8:52 PM 68.0 °F - 64.9 °F 90% 29.97 in 10.0 mi NE 3.5 mph - 0.04 in Thunderstorm Thunderstorm
9:11 PM 68.0 °F - 64.9 °F 90% 30.01 in 5.0 mi WNW 3.5 mph - 0.02 in Rain , Thunderstorm Light Thunderstorms and Rain
9:20 PM 68.0 °F - 64.9 °F 90% 30.02 in 4.0 mi Calm Calm - 0.05 in Rain , Thunderstorm Rain
9:52 PM 66.9 °F - 64.9 °F 93% 30.01 in 6.0 mi South 3.5 mph - 0.16 in Rain , Thunderstorm Light Rain
10:05 PM 66.9 °F - 64.9 °F 93% 30.03 in 2.5 mi South 3.5 mph - 0.11 in Rain , Thunderstorm Heavy Rain
10:13 PM 66.9 °F - 64.9 °F 93% 30.03 in 5.0 mi SE 4.6 mph - 0.12 in Rain , Thunderstorm Rain
10:21 PM 66.9 °F - 64.9 °F 93% 30.03 in 7.0 mi SE 3.5 mph - 0.12 in Rain , Thunderstorm Light Thunderstorms and Rain
10:52 PM 66.9 °F - 64.0 °F 90% 30.02 in 6.0 mi SSE 5.8 mph - 0.18 in Rain , Thunderstorm Rain
11:19 PM 66.9 °F - 64.0 °F 90% 30.02 in 6.0 mi ESE 3.5 mph - 0.07 in Rain Rain
11:28 PM 66.9 °F - 64.9 °F 93% 30.02 in 10.0 mi Calm Calm - 0.07 in Rain , Thunderstorm Light Rain
11:43 PM 66.9 °F - 64.9 °F 93% 30.01 in 10.0 mi SE 4.6 mph - 0.07 in   Mostly Cloudy
11:52 PM 68.0 °F - 64.9 °F 90% 29.99 in 10.0 mi SE 8.1 mph - 0.07 in   Mostly Cloudy